View from above orbital plane
|
View from above satellite
|
Ground track
|
The orbit data is extracted from the following two-line orbital elements,
1 27665U 03005C 21102.72368894 -.00000067 00000-0 71267-5 0 9999
2 27665 39.5750 203.8501 0009742 336.6491 181.1396 14.28549727950530
Epoch (UTC): | 12 April 2021 17:22:06 |
Eccentricity: | 0.0009742 |
inclination: | 39.5750° |
perigee height: | 789 km |
apogee height: | 803 km |
right ascension of ascending node: | 203.8501° |
argument of perigee: | 336.6491° |
revolutions per day: | 14.28549727 |
mean anomaly at epoch: | 181.1396° |
orbit number at epoch: | 95053 |
The dashed part of the orbit path shows where the satellite is in the earth's shadow,
|
|